[[{"header":{"parameterUnit":"m.s-1","parameterCategory":1,"la1":30.2991,"la2":30.254,"lo1":-89.0895,"lo2":-89.0444,"dy":0.0017,"dx":0.0017,"nx":28,"ny":28,"refTime":"2024-08-04T09:00:00:Z","depth":0,"parameterNumber":2,"parameterNumberName":"U-component_of_WINDS"},"data":[0,0,0,0,0,0,0,0,0,0,0,0,0,0,0,0,0,0,0,0,0,0,0,0,0,0,0,0,0,0,0,0,0,0,0,0,0,0,0,0,0,0,0,0,0,0,0,0,0,0,0,0,0,0,0,0,0,0,-0.5717,-0.5715,0,-0.5568,-0.5566,-0.5565,-0.5504,-0.5504,-0.5505,-0.5505,-0.5348,-0.5343,-0.5339,0,0,0,0,0,0,0,0,0,0,0,0,0,-0.5943,-0.594,-0.5717,-0.5715,-0.5713,-0.5568,-0.5566,-0.5564,-0.5504,-0.5504,-0.5505,-0.5505,-0.5349,-0.5344,-0.5338,0,0,0,0,0,0,0,0,0,0,0,0,0,-0.5825,-0.5938,-0.5717,-0.5666,-0.566,-0.5569,-0.5566,-0.5564,-0.5504,-0.5504,-0.5505,-0.5505,-0.5351,-0.5344,-0.5338,-0.5285,0,0,-0.5317,-0.5314,0,0,0,0,0,0,0,0,-0.5832,-0.5817,-0.5675,-0.5669,-0.5662,-0.5555,-0.5588,-0.547,-0.5504,-0.5563,-0.5505,-0.5506,-0.5416,-0.5404,-0.5375,-0.5278,-0.5271,-0.5316,-0.5312,-0.5309,-0.5307,0,0,0,0,0,0,0,-0.584,-0.5823,-0.5658,-0.5673,-0.5665,-0.5648,-0.5632,-0.5566,-0.5488,-0.5558,-0.5553,-0.5536,-0.5412,-0.5381,-0.537,-0.5269,-0.5317,-0.531,-0.5306,-0.5304,-0.5119,-0.5118,0,0,0,0,0,0,-0.5857,-0.583,-0.5663,-0.5653,-0.575,-0.5644,-0.5626,-0.5589,-0.5489,-0.5474,-0.5536,-0.5534,-0.5393,-0.5378,-0.5365,-0.5295,-0.5309,-0.5303,-0.5299,-0.512,-0.5119,-0.5118,0,0,0,0,0,0,-0.5863,-0.5843,-0.5669,-0.574,-0.5717,-0.5639,-0.5599,-0.5586,-0.5555,-0.5472,-0.5458,-0.5519,-0.5392,-0.5374,-0.5305,-0.5289,-0.53,-0.5294,-0.5121,-0.5119,-0.5118,-0.5157,0,0,0,0,0,0,-0.5869,-0.5845,-0.5826,-0.574,-0.5713,-0.5614,-0.5598,-0.5582,-0.5544,-0.554,-0.5452,-0.5438,-0.5391,-0.5316,-0.5299,-0.528,-0.5288,-0.5122,-0.512,-0.5119,-0.5157,-0.5158,-0.5158,0,0,0,0,0,-0.5878,-0.5843,-0.5826,-0.5806,-0.5688,-0.5613,-0.5597,-0.5545,-0.5543,-0.5522,-0.5468,-0.5441,-0.5294,-0.5309,-0.5289,-0.5268,-0.5123,-0.5121,-0.5119,-0.5157,-0.5158,-0.5158,0,0,0,0,0,0,-0.5927,-0.583,-0.5811,-0.5747,-0.5689,-0.5603,-0.5575,-0.5548,-0.5488,-0.5487,-0.5423,-0.5404,-0.534,-0.5297,-0.5316,-0.5211,-0.5206,-0.52,-0.5242,-0.5241,-0.5242,-0.5253,-0.5283,0,0,0,0,0,-0.5931,-0.588,-0.5797,-0.5749,-0.5721,-0.5653,-0.5619,-0.5584,-0.552,-0.5495,-0.5437,-0.5375,-0.5314,-0.5275,-0.5215,-0.5151,-0.513,-0.5126,-0.5127,-0.5127,-0.5123,-0.5083,-0.5081,-0.5112,-0.5112,-0.5112,0,0,-0.5938,-0.5879,-0.585,-0.5758,-0.5708,-0.5655,-0.5633,-0.5578,-0.5537,-0.5486,-0.5417,-0.5372,-0.5298,-0.5231,-0.5199,-0.5194,-0.511,-0.5125,-0.5126,-0.5121,-0.5081,-0.5078,-0.5076,-0.511,-0.5111,-0.5111,0,0,-0.5923,-0.5874,-0.5828,-0.5779,-0.5705,-0.566,-0.5649,-0.5566,-0.5535,-0.5465,-0.5426,-0.5375,-0.5272,-0.5221,-0.5182,-0.5145,-0.5117,-0.5127,-0.5129,-0.5092,-0.5089,-0.5087,-0.5072,-0.5068,-0.5123,-0.5123,-0.5123,0,-0.5941,-0.586,-0.5807,-0.5754,-0.5713,-0.5666,-0.5617,-0.5572,-0.5481,-0.5453,-0.545,-0.5319,-0.5266,-0.5185,-0.5176,-0.5146,-0.513,-0.5137,-0.5094,-0.5091,-0.5088,-0.5074,-0.5069,-0.5125,-0.5125,-0.5125,-0.5124,0,-0.5885,-0.5829,-0.58,-0.5716,-0.5672,-0.5621,-0.5558,-0.552,-0.5488,-0.5443,-0.5371,-0.5306,-0.5231,-0.5209,-0.5177,-0.5123,-0.5122,-0.5107,-0.51,-0.5088,-0.5073,-0.5067,-0.5127,-0.5127,-0.5126,-0.5126,0,0,-0.5898,-0.5783,-0.5774,-0.5734,-0.5648,-0.5603,-0.5549,-0.5477,-0.5445,-0.5383,-0.5335,-0.5249,-0.5234,-0.5189,-0.5151,-0.5118,-0.5091,-0.5106,-0.5104,-0.5105,-0.5025,-0.5037,-0.5031,-0.5072,-0.5071,-0.507,-0.5031,0,-0.5871,-0.5774,-0.5724,-0.5648,-0.5595,-0.5548,-0.55,-0.5441,-0.5397,-0.5344,-0.5294,-0.5233,-0.5219,-0.5192,-0.5157,-0.5102,-0.5074,-0.5104,-0.5025,-0.5023,-0.5045,-0.5024,-0.5036,-0.5002,-0.5025,-0.5024,-0.5023,0,-0.5827,-0.5767,-0.5686,-0.5605,-0.5581,-0.554,-0.5468,-0.5419,-0.535,-0.532,-0.5269,-0.5231,-0.517,-0.5168,-0.5082,-0.5103,-0.5067,-0.5035,-0.5033,-0.5023,-0.5022,-0.5012,-0.499,-0.4985,-0.5014,-0.5015,-0.5015,0,-0.5843,-0.5742,-0.568,-0.5648,-0.5552,-0.5524,-0.5482,-0.5414,-0.5373,-0.531,-0.5282,-0.5213,-0.5175,-0.512,-0.5064,-0.5068,-0.4982,-0.4976,-0.4953,-0.4955,-0.4937,-0.4939,-0.4909,-0.4916,-0.4916,-0.4916,-0.4916,0,-0.5818,-0.577,-0.5686,-0.5648,-0.5592,-0.5534,-0.5479,-0.5433,-0.5373,-0.5323,-0.5278,-0.5232,-0.516,-0.5105,-0.506,-0.4994,-0.4977,-0.4949,-0.4938,-0.4953,-0.4956,-0.4928,-0.4929,-0.4915,-0.4915,-0.4915,-0.4915,0,-0.5827,-0.5769,-0.5698,-0.5613,-0.5591,-0.5553,-0.5479,-0.5439,-0.5392,-0.533,-0.5312,-0.5237,-0.5169,-0.5107,-0.5017,-0.4986,-0.4919,-0.4905,-0.4943,-0.4936,-0.4917,-0.4919,-0.4867,-0.4856,-0.4872,-0.4872,-0.4872,0,-0.5814,-0.5776,-0.5687,-0.5652,-0.5611,-0.5554,-0.5513,-0.5452,-0.541,-0.5328,-0.5297,-0.5226,-0.5166,-0.5059,-0.4996,-0.4926,-0.4909,-0.4895,-0.4898,-0.4914,-0.4907,-0.491,-0.4905,-0.4896,-0.4896,-0.4896,-0.4896,0,-0.5798,-0.5771,-0.5714,-0.5646,-0.5598,-0.5541,-0.5482,-0.5455,-0.5383,-0.5338,-0.5269,-0.5222,-0.513,-0.5059,-0.4981,-0.4936,-0.4903,-0.4896,-0.4886,-0.4901,-0.4925,-0.491,-0.4943,-0.4897,-0.4897,-0.4897,-0.4897,-0.4897,-0.5795,-0.5758,-0.569,-0.5627,-0.5576,-0.5523,-0.548,-0.5428,-0.537,-0.5291,-0.5258,-0.5187,-0.5116,-0.5009,-0.4964,-0.4906,-0.4899,-0.4887,-0.4883,-0.4881,-0.4883,-0.4935,-0.4891,-0.4891,-0.4891,-0.4891,-0.4891,0,-0.5775,-0.5728,-0.5671,-0.5591,-0.5541,-0.5516,-0.545,-0.5409,-0.5347,-0.5285,-0.5227,-0.5146,-0.5077,-0.5007,-0.4934,-0.49,-0.4883,-0.4883,-0.4884,-0.4874,-0.4893,-0.4908,-0.4898,-0.4898,-0.4898,-0.4898,-0.4898,-0.4898,-0.5759,-0.5695,-0.566,-0.557,-0.5523,-0.5455,-0.5418,-0.5367,-0.5317,-0.523,-0.5172,-0.5128,-0.5062,-0.4983,-0.4917,-0.4898,-0.4872,-0.4876,-0.4853,-0.4872,-0.4873,-0.4873,-0.4886,-0.4871,-0.4871,-0.4838,-0.4837,-0.4837]},{"header":{"parameterUnit":"m.s-1","parameterCategory":1,"la1":30.2991,"la2":30.254,"lo1":-89.0895,"lo2":-89.0444,"dy":0.0017,"dx":0.0017,"nx":28,"ny":28,"refTime":"2024-08-04T09:00:00:Z","depth":0,"parameterNumber":3,"parameterNumberName":"V-component_of_WINDS"},"data":[0,0,0,0,0,0,0,0,0,0,0,0,0,0,0,0,0,0,0,0,0,0,0,0,0,0,0,0,0,0,0,0,0,0,0,0,0,0,0,0,0,0,0,0,0,0,0,0,0,0,0,0,0,0,0,0,0,0,-3.511,-3.5112,0,-3.5254,-3.5255,-3.5257,-3.5382,-3.5383,-3.5385,-3.5386,-3.5531,-3.5534,-3.5536,0,0,0,0,0,0,0,0,0,0,0,0,0,-3.4946,-3.4948,-3.511,-3.5112,-3.5114,-3.5253,-3.5255,-3.5257,-3.5382,-3.5384,-3.5385,-3.5387,-3.553,-3.5533,-3.5536,0,0,0,0,0,0,0,0,0,0,0,0,0,-3.5046,-3.4949,-3.511,-3.5193,-3.5202,-3.5253,-3.5255,-3.5258,-3.5381,-3.5384,-3.5386,-3.5388,-3.5529,-3.5533,-3.5537,-3.5517,0,0,-3.5548,-3.555,0,0,0,0,0,0,0,0,-3.504,-3.5052,-3.5179,-3.5187,-3.5197,-3.5302,-3.5251,-3.5345,-3.5381,-3.5313,-3.5386,-3.5389,-3.5453,-3.5463,-3.5486,-3.5524,-3.553,-3.5549,-3.5551,-3.5553,-3.5554,0,0,0,0,0,0,0,-3.5033,-3.5046,-3.5167,-3.518,-3.5192,-3.5223,-3.524,-3.5269,-3.5369,-3.5319,-3.5329,-3.5344,-3.5459,-3.5481,-3.549,-3.5532,-3.5549,-3.5552,-3.5554,-3.5556,-3.5567,-3.5565,0,0,0,0,0,0,-3.5013,-3.504,-3.5162,-3.5171,-3.5122,-3.5225,-3.5243,-3.5266,-3.5369,-3.5387,-3.5342,-3.5349,-3.5474,-3.5485,-3.5495,-3.5482,-3.5553,-3.5556,-3.5558,-3.5568,-3.5566,-3.5564,0,0,0,0,0,0,-3.5009,-3.5023,-3.5157,-3.5108,-3.5128,-3.5225,-3.525,-3.5268,-3.5291,-3.5387,-3.5405,-3.5347,-3.5476,-3.549,-3.5512,-3.5488,-3.5558,-3.5561,-3.5571,-3.5568,-3.5565,-3.5451,0,0,0,0,0,0,-3.5004,-3.5021,-3.5013,-3.5107,-3.513,-3.5169,-3.5249,-3.5269,-3.5297,-3.5308,-3.5396,-3.5413,-3.5479,-3.5506,-3.5516,-3.5495,-3.5564,-3.5573,-3.5569,-3.5566,-3.5458,-3.5445,-3.5434,0,0,0,0,0,-3.4998,-3.4974,-3.5012,-3.5026,-3.5122,-3.5168,-3.5181,-3.5258,-3.5295,-3.5289,-3.5351,-3.541,-3.549,-3.5507,-3.5519,-3.5499,-3.5575,-3.5571,-3.5566,-3.5463,-3.5447,-3.5434,0,0,0,0,0,0,-3.4873,-3.4988,-3.5031,-3.5037,-3.5092,-3.5189,-3.5183,-3.5238,-3.5283,-3.5291,-3.5385,-3.5404,-3.5416,-3.546,-3.5477,-3.5488,-3.5541,-3.5538,-3.5458,-3.5444,-3.5432,-3.5421,-3.5567,0,0,0,0,0,-3.4847,-3.4874,-3.4973,-3.4969,-3.4994,-3.5084,-3.5106,-3.5162,-3.5222,-3.5245,-3.5309,-3.5365,-3.5404,-3.5426,-3.5467,-3.5466,-3.5488,-3.5458,-3.5447,-3.5436,-3.5433,-3.5439,-3.5428,-3.5549,-3.5549,-3.5549,0,0,-3.4791,-3.4858,-3.4868,-3.4945,-3.4994,-3.5021,-3.5102,-3.5126,-3.5148,-3.5249,-3.5274,-3.5323,-3.5392,-3.5404,-3.5412,-3.5441,-3.5405,-3.5431,-3.5422,-3.5424,-3.5433,-3.5422,-3.5411,-3.5546,-3.5547,-3.5547,0,0,-3.4705,-3.4757,-3.4761,-3.4809,-3.4884,-3.4944,-3.4945,-3.5035,-3.5072,-3.5099,-3.5177,-3.5205,-3.5267,-3.5315,-3.5347,-3.5284,-3.5341,-3.5295,-3.5232,-3.5237,-3.5228,-3.522,-3.5199,-3.519,-3.5291,-3.5291,-3.5291,0,-3.4626,-3.467,-3.4755,-3.4776,-3.4809,-3.4905,-3.4911,-3.4953,-3.5036,-3.5057,-3.5089,-3.5173,-3.5226,-3.5251,-3.5237,-3.5259,-3.5265,-3.5284,-3.5222,-3.5215,-3.5209,-3.519,-3.5182,-3.5285,-3.5286,-3.5286,-3.5287,0,-3.4571,-3.46,-3.4595,-3.4675,-3.4707,-3.472,-3.4809,-3.4832,-3.4886,-3.4943,-3.4972,-3.504,-3.5098,-3.5108,-3.516,-3.5142,-3.5158,-3.5204,-3.5259,-3.519,-3.5174,-3.5167,-3.5276,-3.5279,-3.528,-3.5282,0,0,-3.4405,-3.4536,-3.4533,-3.4572,-3.4664,-3.4688,-3.4707,-3.4765,-3.4784,-3.4839,-3.4858,-3.4912,-3.4958,-3.4994,-3.5053,-3.5057,-3.5006,-3.5105,-3.5108,-3.5085,-3.4994,-3.4957,-3.4947,-3.5045,-3.5044,-3.5044,-3.4988,0,-3.4333,-3.4373,-3.4453,-3.4468,-3.4498,-3.4592,-3.4609,-3.4668,-3.4723,-3.4758,-3.482,-3.4857,-3.4913,-3.4937,-3.4945,-3.501,-3.4989,-3.5016,-3.5065,-3.5065,-3.5044,-3.4939,-3.49,-3.4844,-3.4982,-3.4981,-3.4981,0,-3.4254,-3.4306,-3.4324,-3.4418,-3.4433,-3.4447,-3.4509,-3.454,-3.461,-3.4651,-3.4694,-3.476,-3.4787,-3.4839,-3.4879,-3.4895,-3.4921,-3.4956,-3.4956,-3.4963,-3.5018,-3.4943,-3.4828,-3.4819,-3.4971,-3.4972,-3.4973,0,-3.4132,-3.4207,-3.4229,-3.4259,-3.4369,-3.4377,-3.4423,-3.4495,-3.4527,-3.4581,-3.4603,-3.4659,-3.4689,-3.4732,-3.4813,-3.4842,-3.4844,-3.4902,-3.488,-3.4877,-3.4874,-3.4873,-3.4761,-3.4891,-3.4891,-3.4891,-3.4891,0,-3.4043,-3.405,-3.4176,-3.4189,-3.4202,-3.4295,-3.4305,-3.436,-3.4425,-3.4451,-3.4537,-3.456,-3.4665,-3.4701,-3.4764,-3.4789,-3.4802,-3.4836,-3.4853,-3.4828,-3.4824,-3.4845,-3.4851,-3.4889,-3.4889,-3.489,-3.489,0,-3.3908,-3.3992,-3.4022,-3.4126,-3.4152,-3.4157,-3.4246,-3.4263,-3.4326,-3.4359,-3.4372,-3.447,-3.4518,-3.4603,-3.4674,-3.4717,-3.4729,-3.4757,-3.4705,-3.4715,-3.4688,-3.469,-3.4586,-3.4578,-3.4711,-3.471,-3.4709,0,-3.3845,-3.3854,-3.3959,-3.3984,-3.4028,-3.4065,-3.4099,-3.4193,-3.4225,-3.4308,-3.4316,-3.437,-3.4418,-3.449,-3.4568,-3.4624,-3.4655,-3.4615,-3.4663,-3.464,-3.4655,-3.4654,-3.4656,-3.4603,-3.4601,-3.4599,-3.4598,0,-3.3725,-3.3768,-3.3813,-3.3874,-3.3912,-3.3964,-3.402,-3.4036,-3.4143,-3.4175,-3.4225,-3.4263,-3.4338,-3.4391,-3.4459,-3.4508,-3.4571,-3.4583,-3.4581,-3.4555,-3.4525,-3.4542,-3.4675,-3.4584,-3.4586,-3.4587,-3.4587,-3.4588,-3.3625,-3.3638,-3.3716,-3.3764,-3.3818,-3.387,-3.3892,-3.396,-3.4004,-3.4073,-3.4127,-3.4173,-3.4248,-3.4346,-3.4392,-3.4431,-3.446,-3.4457,-3.4456,-3.4453,-3.4444,-3.452,-3.4444,-3.4444,-3.4445,-3.4445,-3.4446,0,-3.351,-3.3566,-3.361,-3.3688,-3.3727,-3.3786,-3.3853,-3.3882,-3.3922,-3.3987,-3.4034,-3.4094,-3.4148,-3.4232,-3.4294,-3.4309,-3.434,-3.4322,-3.4321,-3.4332,-3.4414,-3.441,-3.4296,-3.4296,-3.4296,-3.4296,-3.4296,-3.4296,-3.3454,-3.3481,-3.3534,-3.3589,-3.3646,-3.3693,-3.3727,-3.3777,-3.3829,-3.3893,-3.3939,-3.3994,-3.4068,-3.4136,-3.4189,-3.4213,-3.4231,-3.4204,-3.4237,-3.4312,-3.4325,-3.4339,-3.4335,-3.4207,-3.4207,-3.4152,-3.4151,-3.4151]}]]